Location: LDNL
(36.4545°S, 141.6685°E)
Time: 06:51:24
(UTC+10:00)

Vanguard 1 Rocket - Visible Passes

Search period start: 10 August 2022 00:00
Search period end: 20 August 2022 00:00
Orbit: 651 x 4225 km, 34.3° (Epoch: 08 August)

Date Brightness Start Highest point End Pass type
(mag) Time Alt. Az. Time Alt. Az. Time Alt. Az.
10 Aug 10.5 18:16:16 10° N 18:24:58 15° NNE 18:31:38 10° ENE visible
10 Aug 9.4 20:40:04 10° NW 20:52:14 37° NNE 20:52:14 37° NNE visible
11 Aug 9.7 19:26:48 10° NNW 19:40:42 29° NNE 19:45:08 23° ENE visible
11 Aug 9.9 21:55:36 10° WNW 22:02:26 31° NW 22:02:26 31° NW visible
12 Aug 10.3 18:14:35 10° N 18:27:43 22° NNE 18:36:39 10° ENE visible
12 Aug 9.2 20:41:19 10° NW 20:55:20 47° NNE 20:55:20 47° NNE visible
12 Aug 10.8 23:12:01 10° WNW 23:12:38 12° WNW 23:12:38 12° WNW visible
13 Aug 9.5 19:27:17 10° NW 19:43:23 38° NNE 19:48:14 28° ENE visible
13 Aug 9.8 21:57:37 10° WNW 22:05:31 35° WNW 22:05:31 35° WNW visible
14 Aug 10.2 18:14:04 10° NNW 18:30:22 29° NNE 18:40:37 10° E visible
14 Aug 8.9 20:42:51 10° NW 20:58:24 57° NNE 20:58:24 57° NNE visible
14 Aug 10.8 23:14:26 10° W 23:15:41 13° W 23:15:41 13° W visible
15 Aug 9.4 19:28:12 10° NW 19:46:01 47° NNE 19:51:16 31° ENE visible
15 Aug 9.7 21:59:47 10° WNW 22:08:33 39° WNW 22:08:33 39° WNW visible
16 Aug 10.2 18:14:12 10° NNW 18:32:55 37° NNE 18:44:04 10° E visible
16 Aug 8.8 20:44:36 10° WNW 21:01:13 65° NNE 21:01:24 65° NNE visible
16 Aug 10.7 23:16:54 10° W 23:18:41 15° W 23:18:41 15° W visible
17 Aug 9.3 19:29:25 10° NW 19:48:36 56° NNE 19:54:14 33° E visible
17 Aug 9.6 22:02:03 10° W 22:11:31 42° WNW 22:11:31 42° WNW visible
18 Aug 10.1 18:14:48 10° NW 18:35:24 46° NNE 18:47:03 11° E visible
18 Aug 8.8 20:46:33 10° WNW 21:03:52 73° N 21:04:20 72° NNE visible
18 Aug 10.7 23:19:21 10° W 23:21:37 16° W 23:21:37 16° W visible
19 Aug 9.3 19:30:55 10° WNW 19:51:09 64° NNE 19:57:07 34° E visible
19 Aug 9.6 22:04:22 10° W 22:14:25 44° W 22:14:25 44° W visible
